Location: Friaudour
(46.0460°N, 1.2873°E)
Time: 21:00:18
(UTC+00:00)

ARIANE 5 R/B - Pass Details

Date: 14 July 2020
Orbit: 749 x 794 km, 98.6° (Epoch: 14 August)

Event Time Altitude Azimuth Distance (km) Brightness Sun altitude
Rises 02:51:00 0° 14° (NNE) 3,236 7.0 -12.1°
Reaches altitude 10° 02:53:18 10° 15° (NNE) 2,312 6.1 -11.9°
Maximum altitude 02:58:24 87° 103° (ESE) 779 2.5 -11.3°
Enters shadow 03:03:30 10° 195° (SSW) 2,305 4.4 -10.7°
